Durant, OK

1:39 AM CST on February 23, 2018 (GMT -0600)
Eaker

Weather History for KDUA - September, 2013

Change the Weather History Date:

Sunday, September 22, 2013

  Actual Average (KMLC) Record (KMLC)
Temperature  
Mean Temperature 68 °F -  
Max Temperature 84 °F 81 °F 97 °F (1956)
Min Temperature 53 °F 60 °F 41 °F (1982)
Cooling Degree Days 4    
Growing Degree Days 18 (Base 50)    
Moisture  
Dew Point 52 °F    
Average Humidity 60    
Maximum Humidity 94    
Minimum Humidity 27    
Precipitation  
Precipitation 0.00 in - - ()
Sea Level Pressure  
Sea Level Pressure 29.90 in    
Wind  
Wind Speed 5 mph (East)    
Max Wind Speed 10 mph    
Max Gust Speed 16 mph    
Visibility 10 miles    
Events      
Averages and records for this station are not official NWS values.
T = Trace of Precipitation, MM = Missing Value Source: NWS Daily Summary

Daily Weather History Graph

Daily Weather History Graph

Search for Another Location

Airport or City:

Trip Planner

Search our weather history database for the weather conditions in past years. The results will help you decide how hot, cold, wet, or windy it might be!

Date:

Astronomy

Sep. 22, 2013 Rise Set
Actual Time 7:13 AM CDT 7:21 PM CDT
Civil Twilight 6:48 AM CDT 7:46 PM CDT
Nautical Twilight 6:19 AM CDT 8:15 PM CDT
Astronomical Twilight 5:50 AM CDT 8:45 PM CDT
Moon 9:24 PM CDT (9/22) 10:24 AM CDT (9/22)
Length of Visible Light 12h 57m
Length of Day
12h 08m
Waning Gibbous, 88% of the Moon is Illuminated
Sep 22
Waning Gibbous
Sep 26
Last Quarter
Oct 4
New
Oct 11
First Quarter
Oct 18
Full

Hourly Weather History & Observations

Time (CDT) Temp. Dew Point Humidity Pressure Visibility Wind Dir Wind Speed Gust Speed Precip Events Conditions
12:15 AM 60.8 °F 51.8 °F 72% 29.92 in 10.0 mi West 4.6 mph - N/A   Clear
12:35 AM 60.8 °F 51.8 °F 72% 29.92 in 10.0 mi North 4.6 mph - N/A   Clear
12:55 AM 59.0 °F 51.8 °F 77% 29.92 in 5.0 mi NNE 4.6 mph - N/A   Haze
1:15 AM 59.0 °F 51.8 °F 77% 29.91 in 7.0 mi NNE 4.6 mph - N/A   Clear
1:35 AM 59.0 °F 51.8 °F 77% 29.91 in 10.0 mi Calm Calm - N/A   Clear
1:55 AM 60.8 °F 51.8 °F 72% 29.92 in 10.0 mi West 3.5 mph - N/A   Clear
2:15 AM 59.0 °F 51.8 °F 77% 29.92 in 10.0 mi NNE 3.5 mph - N/A   Clear
2:35 AM 59.0 °F 51.8 °F 77% 29.92 in 10.0 mi North 4.6 mph - N/A   Clear
2:55 AM 59.0 °F 51.8 °F 77% 29.92 in 10.0 mi NNW 4.6 mph - N/A   Clear
3:15 AM 59.0 °F 51.8 °F 77% 29.92 in 10.0 mi WNW 4.6 mph - N/A   Clear
3:35 AM 59.0 °F 51.8 °F 77% 29.91 in 10.0 mi North 3.5 mph - N/A   Clear
3:55 AM 57.2 °F 51.8 °F 82% 29.91 in 10.0 mi NNE 3.5 mph - N/A   Clear
4:15 AM 57.2 °F 51.8 °F 82% 29.91 in 10.0 mi NNE 3.5 mph - N/A   Clear
4:35 AM 55.4 °F 51.8 °F 88% 29.91 in 10.0 mi Calm Calm - N/A   Clear
4:55 AM 55.4 °F 51.8 °F 88% 29.91 in 10.0 mi North 4.6 mph - N/A   Clear
5:15 AM 55.4 °F 51.8 °F 88% 29.92 in 10.0 mi WNW 4.6 mph - N/A   Clear
5:35 AM 55.4 °F 51.8 °F 88% 29.92 in 10.0 mi North 3.5 mph - N/A   Clear
5:55 AM 55.4 °F 51.8 °F 88% 29.92 in 10.0 mi North 4.6 mph - N/A   Clear
6:15 AM 53.6 °F 51.8 °F 94% 29.92 in 10.0 mi NNE 4.6 mph - N/A   Clear
6:35 AM 53.6 °F 51.8 °F 94% 29.92 in 10.0 mi NNE 4.6 mph - N/A   Clear
6:55 AM 53.6 °F 50.0 °F 88% 29.92 in 10.0 mi NNE 4.6 mph - N/A   Clear
7:15 AM 53.6 °F 50.0 °F 88% 29.93 in 10.0 mi North 4.6 mph - N/A   Clear
7:35 AM 53.6 °F 51.8 °F 94% 29.94 in 10.0 mi North 3.5 mph - N/A   Clear
7:55 AM 55.4 °F 51.8 °F 88% 29.94 in 10.0 mi NNE 4.6 mph - N/A   Clear
8:15 AM 59.0 °F 53.6 °F 82% 29.94 in 10.0 mi ENE 3.5 mph - N/A   Clear
8:35 AM 60.8 °F 51.8 °F 72% 29.95 in 10.0 mi East 4.6 mph - N/A   Clear
8:55 AM 62.6 °F 53.6 °F 72% 29.95 in 10.0 mi East 5.8 mph - N/A   Clear
9:15 AM 64.4 °F 53.6 °F 68% 29.96 in 10.0 mi ESE 5.8 mph - N/A   Clear
9:35 AM 66.2 °F 55.4 °F 68% 29.96 in 10.0 mi SE 4.6 mph - N/A   Clear
9:55 AM 69.8 °F 55.4 °F 60% 29.97 in 10.0 mi SE 5.8 mph - N/A   Clear
10:15 AM 69.8 °F 55.4 °F 60% 29.97 in 10.0 mi SE 4.6 mph - N/A   Clear
10:35 AM 71.6 °F 55.4 °F 57% 29.97 in 10.0 mi South 5.8 mph - N/A   Clear
10:55 AM 73.4 °F 55.4 °F 53% 29.97 in 10.0 mi SSE 5.8 mph - N/A   Clear
11:15 AM 75.2 °F 53.6 °F 47% 29.97 in 10.0 mi SE 10.4 mph 16.1 mph N/A   Clear
11:35 AM 75.2 °F 53.6 °F 47% 29.97 in 10.0 mi ESE 6.9 mph - N/A   Clear
11:55 AM 77.0 °F 53.6 °F 44% 29.96 in 10.0 mi ESE 6.9 mph - N/A   Clear
12:15 PM 77.0 °F 53.6 °F 44% 29.95 in 10.0 mi SE 4.6 mph - N/A   Clear
12:35 PM 78.8 °F 51.8 °F 39% 29.95 in 10.0 mi South 3.5 mph - N/A   Clear
12:55 PM 80.6 °F 50.0 °F 34% 29.94 in 10.0 mi SE 3.5 mph - N/A   Clear
1:15 PM 80.6 °F 50.0 °F 34% 29.93 in 10.0 mi East 5.8 mph - N/A   Clear
1:35 PM 80.6 °F 50.0 °F 34% 29.92 in 10.0 mi South 4.6 mph - N/A   Clear
1:55 PM 82.4 °F 50.0 °F 32% 29.92 in 10.0 mi SSE 8.1 mph - N/A   Clear
2:15 PM 82.4 °F 50.0 °F 32% 29.91 in 10.0 mi South 4.6 mph - N/A   Clear
2:35 PM 82.4 °F 50.0 °F 32% 29.90 in 10.0 mi Calm Calm - N/A   Clear
2:55 PM 82.4 °F 50.0 °F 32% 29.89 in 10.0 mi ESE 5.8 mph - N/A   Clear
3:15 PM 84.2 °F 50.0 °F 30% 29.88 in 10.0 mi SE 6.9 mph - N/A   Clear
3:35 PM 82.4 °F 50.0 °F 32% 29.87 in 10.0 mi South 3.5 mph - N/A   Clear
3:55 PM 84.2 °F 50.0 °F 30% 29.87 in 10.0 mi SE 4.6 mph - N/A   Clear
4:15 PM 84.2 °F 48.2 °F 29% 29.86 in 10.0 mi SE 3.5 mph - N/A   Clear
4:35 PM 84.2 °F 48.2 °F 29% 29.86 in 10.0 mi East 4.6 mph - N/A   Clear
4:55 PM 84.2 °F 48.2 °F 29% 29.85 in 10.0 mi ESE 6.9 mph - N/A   Clear
5:15 PM 84.2 °F 48.2 °F 29% 29.85 in 10.0 mi SE 4.6 mph - N/A   Clear
5:35 PM 84.2 °F 46.4 °F 27% 29.84 in 10.0 mi ESE 10.4 mph - N/A   Clear
5:55 PM 82.4 °F 48.2 °F 30% 29.84 in 10.0 mi SE 6.9 mph - N/A   Clear
6:15 PM 82.4 °F 48.2 °F 30% 29.84 in 10.0 mi ESE 4.6 mph - N/A   Clear
6:35 PM 82.4 °F 48.2 °F 30% 29.84 in 10.0 mi ESE 5.8 mph - N/A   Clear
6:55 PM 80.6 °F 50.0 °F 34% 29.84 in 10.0 mi ESE 4.6 mph - N/A   Clear
7:15 PM 77.0 °F 51.8 °F 41% 29.84 in 10.0 mi ESE 4.6 mph - N/A   Clear
7:35 PM 73.4 °F 51.8 °F 47% 29.84 in 10.0 mi East 4.6 mph - N/A   Clear
7:55 PM 69.8 °F 53.6 °F 56% 29.84 in 10.0 mi East 3.5 mph - N/A   Clear
8:15 PM 68.0 °F 53.6 °F 60% 29.84 in 10.0 mi East 4.6 mph - N/A   Clear
8:35 PM 68.0 °F 53.6 °F 60% 29.85 in 10.0 mi East 4.6 mph - N/A   Clear
8:55 PM 68.0 °F 51.8 °F 56% 29.84 in 10.0 mi East 5.8 mph - N/A   Clear
9:15 PM 66.2 °F 51.8 °F 60% 29.85 in 10.0 mi ESE 4.6 mph - N/A   Clear
9:35 PM 66.2 °F 51.8 °F 60% 29.85 in 10.0 mi SE 5.8 mph - N/A   Clear
9:55 PM 64.4 °F 51.8 °F 64% 29.86 in 10.0 mi SE 4.6 mph - N/A   Clear
10:15 PM 64.4 °F 51.8 °F 64% 29.86 in 10.0 mi SE 5.8 mph - N/A   Clear
10:35 PM 64.4 °F 53.6 °F 68% 29.86 in 10.0 mi SE 3.5 mph - N/A   Clear
10:55 PM 62.6 °F 53.6 °F 72% 29.86 in 10.0 mi SE 4.6 mph - N/A   Clear
11:15 PM 62.6 °F 53.6 °F 72% 29.87 in 10.0 mi SE 4.6 mph - N/A   Clear
11:35 PM 62.6 °F 53.6 °F 72% 29.87 in 10.0 mi SE 5.8 mph - N/A   Clear
11:55 PM 60.8 °F 53.6 °F 77% 29.87 in 10.0 mi SE 4.6 mph - N/A   Clear